Location: Hylvaty SDH
(49.9612°N, 16.4057°E)
Time: 12:40:54
(UTC+01:00)

Tiros 1 - Pass Details

Date: 11 October 2020
Orbit: 630 x 663 km, 48.4° (Epoch: 28 October)

Event Time Altitude Azimuth Distance (km) Brightness Sun altitude
Rises 10:41:48 0° 217° (SW) 2,911 10.8 27.2°
Reaches altitude 10° 10:44:21 10° 205° (SSW) 2,010 10.2 27.4°
Maximum altitude 10:48:16 28° 147° (SSE) 1,209 14.2 27.8°
Drops below altitude 10° 10:52:13 10° 90° (E) 2,033 10.2 28.1°
Sets 10:54:49 0° 78° (ENE) 2,952 10.8 28.3°
